KOREASAT 7

Last updated on Fri Jul 10 2026 00:03:05 GMT+0000 (Coordinated Universal Time)

1 42691U 17023A 26190.30665966 -.00000348 00000+0 00000+0 0 9998 2 42691 0.0190 18.0947 0000700 117.0655 18.3506 1.00270445 33591
UTC large
Height (km)
Speed (km/s)
/
Latitude / Longitude
Inclination (degrees)
Orbital Period (minutes)
Azimuth
Elevation
Range (km)
Doppler Factor

Next 0 passes for location: London (51.5072 / 0.1276)

No passes found over London.